Location: Baia Mare
(47.6567°N, 23.5850°E)
Time: 23:26:17
(UTC+03:00)

ISS - Pass Details

Date: 23 September 2019
Orbit: 411 x 421 km, 51.6° (Epoch: 19 September)

Event Time Altitude Azimuth Distance (km) Brightness Sun altitude
Rises 19:59:00 0° 228° (SW) 2,335 0.7 -7.0°
Reaches altitude 10° 20:01:07 10° 222° (SW) 1,476 -0.5 -7.3°
Maximum altitude 20:04:19 47° 148° (SSE) 556 -3.4 -7.9°
Drops below altitude 10° 20:07:31 10° 73° (ENE) 1,482 -1.5 -8.4°
Enters shadow 20:07:38 - 73° (ENE) 1,527 -1.5 -8.4°
